DateTimeUTC,F1_A11,F1_S11,BsB_S11,BsG_S11,BsR_S11,BbsB_S11,BbsG_S11,BbsR_S11,BaB_A11,BaG_A11,BaR_A11,Tu_S11,T_S11,Uu_S11,U_S11,P_S11,T1_A11
2021-08-03T03:00:00Z,00000200,20000000,,,,,,,0000.67,0000.08,0000.47,18.4,25.3,04.9,03.2,0672.4,31.0
2021-08-03T03:01:00Z,00000200,20000000,,,,,,,0000.09,0000.21,0000.34,18.4,25.3,04.9,03.2,0672.3,31.0
2021-08-03T03:02:00Z,00000200,20000000,,,,,,,-000.27,0000.00,-000.35,18.4,25.3,04.9,03.2,0672.3,31.0
2021-08-03T03:03:00Z,00000200,60000000,,,,,,,0000.10,-000.01,-000.23,18.4,25.4,04.9,03.2,0672.3,31.0
2021-08-03T03:04:00Z,00000200,40000000,0003.38,0002.61,0001.38,0001.14,0000.16,-000.00,0000.96,0000.84,0000.82,18.7,25.3,04.5,03.0,0673.2,31.0
2021-08-03T03:05:00Z,00000200,00000000,0004.18,0002.81,0001.62,0000.62,0000.70,0000.33,0000.59,0000.60,0000.22,18.7,25.2,04.7,03.2,0673.3,31.0
2021-08-03T03:06:00Z,00000200,00000000,0004.27,0002.98,0001.59,0001.24,0000.39,0000.56,0000.91,0000.66,0000.49,18.7,25.2,04.7,03.2,0673.3,31.0
2021-08-03T03:07:00Z,00000200,00000000,0004.65,0003.19,0001.89,0000.39,0000.37,0000.37,0000.50,0000.54,0000.98,18.7,25.2,04.7,03.2,0673.3,31.0
2021-08-03T03:08:00Z,00000200,00000000,0005.20,0004.01,0001.81,0000.95,0000.39,0000.55,0001.84,0001.94,0001.09,18.7,25.1,04.9,03.3,0673.3,31.0
2021-08-03T03:09:00Z,00000200,00000000,0005.19,0003.64,0001.89,0001.05,0000.31,0000.19,0001.28,0001.25,0001.16,18.6,25.1,05.3,03.6,0673.3,31.0
2021-08-03T03:10:00Z,00000200,00000000,0005.22,0004.05,0002.35,0000.74,0000.83,0000.75,0000.90,0000.60,0000.67,18.6,25.1,05.4,03.7,0673.3,31.0
2021-08-03T03:11:00Z,00000200,00000000,0005.40,0003.75,0002.10,0000.42,0000.22,0000.32,0001.13,0000.75,0000.40,18.6,25.1,05.4,03.6,0673.3,31.0
2021-08-03T03:12:00Z,00000200,00000000,0005.32,0003.92,0002.00,0000.63,0000.33,0000.33,0000.51,0000.94,0000.52,18.6,25.1,05.3,03.5,0673.3,31.0
2021-08-03T03:13:00Z,00000200,00000000,0005.39,0003.63,0002.11,0000.90,0000.32,0000.42,0000.79,0000.83,0000.62,18.6,25.1,05.3,03.6,0673.3,31.0
2021-08-03T03:14:00Z,00000200,00000000,0005.56,0003.60,0002.21,0000.59,0000.24,0000.42,0001.60,0000.72,0000.67,18.5,25.0,05.2,03.5,0673.3,31.0
2021-08-03T03:15:00Z,00000200,00000000,0005.72,0003.58,0001.92,0001.21,0000.39,0000.17,0001.11,0001.56,0001.05,18.5,25.0,05.2,03.5,0673.3,31.0
2021-08-03T03:16:00Z,00000200,00000000,0004.88,0003.81,0001.93,0000.57,0000.64,0000.14,0000.94,0000.71,0000.44,18.6,25.0,05.3,03.6,0673.3,31.0
2021-08-03T03:17:00Z,00000200,00000000,0005.15,0003.81,0002.06,0000.33,0000.43,0000.37,0001.01,0001.00,0000.85,18.6,25.1,05.4,03.6,0673.3,31.0
2021-08-03T03:18:00Z,00000200,00000000,0005.66,0003.65,0002.08,0000.34,0000.44,0000.50,0000.99,0000.67,0000.68,18.7,25.1,05.3,03.6,0673.3,31.0
2021-08-03T03:19:00Z,00000200,00000000,0005.49,0003.63,0002.07,0000.63,0000.55,0000.41,0000.91,0001.10,0000.87,18.7,25.1,05.3,03.6,0673.3,31.0
2021-08-03T03:20:00Z,00000200,00000000,0005.01,0003.64,0002.05,0001.39,0000.34,0000.45,0001.14,0000.93,0000.57,18.7,25.1,05.2,03.5,0673.3,31.0
2021-08-03T03:21:00Z,00000200,00000000,0005.39,0003.96,0002.17,0001.07,0000.67,0000.26,0001.09,0000.85,0000.46,18.6,25.1,05.3,03.6,0673.3,31.0
2021-08-03T03:22:00Z,00000200,00000000,0005.14,0004.16,0002.22,0000.91,0000.40,0000.30,0000.53,0000.89,0000.83,18.6,25.0,05.2,03.5,0673.3,31.0
2021-08-03T03:23:00Z,00000200,00000000,0004.83,0003.39,0002.04,0000.41,0000.75,0000.36,0000.84,0000.12,0000.26,18.6,25.0,05.1,03.5,0673.3,31.0
2021-08-03T03:24:00Z,00000200,00000000,0004.33,0003.37,0001.88,0000.35,0000.75,0000.22,0000.81,0001.04,0000.56,18.6,25.0,04.9,03.3,0673.3,30.9
2021-08-03T03:25:00Z,00000200,00000000,0004.90,0003.61,0001.54,0000.91,0000.61,0000.73,0000.78,0000.98,0000.68,18.5,25.0,04.8,03.2,0673.3,31.0
2021-08-03T03:26:00Z,00000200,00000000,0003.03,0002.38,0001.52,0000.48,0000.31,0000.32,0000.03,-000.39,-000.50,18.5,25.0,04.6,03.1,0673.3,31.0
2021-08-03T03:27:00Z,00000200,00000000,0001.93,0001.74,0000.98,-000.05,0000.12,0000.12,0000.56,-000.09,-000.06,18.5,25.0,04.4,03.0,0673.3,31.0
2021-08-03T03:28:00Z,00000200,00000000,0003.77,0003.14,0001.75,0000.63,0000.63,0000.49,0000.96,0001.56,0001.24,18.5,25.0,04.4,03.0,0673.2,31.0
2021-08-03T03:29:00Z,00000200,00000000,0003.22,0002.54,0001.76,0000.90,0000.50,0000.36,0000.73,0000.93,0000.29,18.5,25.0,04.7,03.2,0673.2,30.9
2021-08-03T03:30:00Z,00000200,00000000,0005.10,0003.24,0001.96,0000.67,-000.01,0000.49,0001.97,0001.89,0001.91,18.4,25.0,04.8,03.2,0673.2,31.0
2021-08-03T03:31:00Z,00000200,00000000,0006.21,0004.04,0002.06,0001.31,0000.46,0000.59,0001.43,0001.09,0001.29,18.5,25.0,05.3,03.5,0673.2,31.0
2021-08-03T03:32:00Z,00000200,00000000,0005.11,0003.75,0002.58,0000.76,0000.27,0000.42,0000.87,0001.00,0000.32,18.5,25.0,05.5,03.7,0673.2,31.0
2021-08-03T03:33:00Z,00000200,00000000,0004.77,0003.97,0002.35,0000.85,0000.30,0000.50,0001.19,0001.04,0001.34,18.5,25.0,05.4,03.7,0673.2,31.0
2021-08-03T03:34:00Z,00000200,00000000,0005.01,0003.85,0002.22,0000.52,0000.37,0000.71,0001.47,0001.45,0000.97,18.5,25.0,05.6,03.8,0673.2,31.0
2021-08-03T03:35:00Z,00000200,00000000,0005.30,0003.63,0002.03,0001.37,0000.53,0000.70,0001.26,0000.89,0000.48,18.6,25.0,05.7,03.9,0673.2,31.0
2021-08-03T03:36:00Z,00000200,00000000,0004.80,0003.64,0002.22,0001.08,0000.60,0000.39,0000.92,0000.66,0000.78,18.5,25.0,05.8,03.9,0673.2,31.0
2021-08-03T03:37:00Z,00000200,00000000,0005.74,0003.70,0002.17,0001.35,0000.44,0000.40,0000.64,0001.13,0000.66,18.5,25.0,05.7,03.9,0673.2,31.0
2021-08-03T03:38:00Z,00000200,00000000,0005.58,0003.67,0002.19,0001.17,0000.56,0000.27,0001.10,0001.16,0000.43,18.5,25.0,05.7,03.9,0673.2,31.0
2021-08-03T03:39:00Z,00000200,00000000,0004.60,0003.47,0002.06,0000.94,0000.88,0000.36,0000.99,0000.43,0000.95,18.5,24.9,05.8,03.9,0673.2,30.9
2021-08-03T03:40:00Z,00000200,00000000,0005.10,0003.84,0002.20,0000.72,0000.70,0000.47,0000.97,0001.08,0000.55,18.5,24.9,05.8,03.9,0673.2,30.9
2021-08-03T03:41:00Z,00000200,00000000,0005.12,0003.93,0002.02,0000.81,0000.75,0000.55,0001.26,0000.70,0000.96,18.4,24.9,05.8,03.9,0673.2,31.0
2021-08-03T03:42:00Z,00000200,00000000,0005.23,0003.81,0002.09,0000.85,0000.73,0000.38,0001.45,0001.48,0000.71,18.4,24.9,05.9,04.0,0673.2,31.0
2021-08-03T03:43:00Z,00000200,00000000,0005.04,0003.98,0002.45,0001.22,0000.74,0000.13,0000.89,0000.57,0000.98,18.4,24.9,06.0,04.0,0673.2,30.9
2021-08-03T03:44:00Z,00000200,00000000,0005.08,0003.87,0002.28,0000.61,0000.60,0000.52,0000.88,0001.26,0000.58,18.4,24.9,06.0,04.0,0673.2,30.9
2021-08-03T03:45:00Z,00000200,00000000,0004.57,0003.56,0001.87,0000.92,0000.54,0000.39,0001.35,0001.16,0000.80,18.4,24.9,05.9,04.0,0673.2,30.9
2021-08-03T03:46:00Z,00000200,00000000,0005.49,0003.11,0002.06,0001.15,0000.63,0000.56,0000.30,0000.31,0000.21,18.4,24.9,05.7,03.8,0673.2,31.0
2021-08-03T03:47:00Z,00000200,00000000,0004.89,0003.16,0001.92,0000.53,0000.42,0000.29,0000.99,0000.62,0000.34,18.6,24.9,05.2,03.5,0673.2,31.0
2021-08-03T03:48:00Z,00000200,00000000,0005.12,0002.94,0001.64,0000.48,0000.50,0000.58,-000.02,-000.11,-000.18,18.7,25.0,05.1,03.5,0673.2,31.0
2021-08-03T03:49:00Z,00000200,00000000,0004.32,0003.18,0001.98,0001.08,0000.44,0000.38,0000.92,0000.70,0000.73,18.7,25.0,04.8,03.3,0673.2,31.0
2021-08-03T03:50:00Z,00000200,00000000,0004.95,0003.63,0002.21,0000.68,0000.42,0000.60,0001.65,0001.51,0001.17,18.7,25.0,05.0,03.4,0673.2,31.0
2021-08-03T03:51:00Z,00000200,00000000,0004.94,0003.86,0002.09,0000.86,0000.58,0000.11,0000.31,0000.66,0000.29,18.7,25.0,05.1,03.5,0673.2,31.0
2021-08-03T03:52:00Z,00000200,00000000,0005.70,0003.67,0002.03,-000.24,0000.33,0000.49,0000.70,0000.35,0000.16,18.7,25.0,05.0,03.4,0673.2,31.0
2021-08-03T03:53:00Z,00000200,00000000,0004.11,0003.19,0001.93,0000.99,0000.51,0000.52,0001.07,0000.68,0000.26,18.6,25.0,04.7,03.2,0673.1,31.0
2021-08-03T03:54:00Z,00000200,00000000,0003.32,0002.13,0001.60,0000.44,0000.50,0000.13,0000.28,0000.27,0000.48,18.6,25.0,04.6,03.1,0673.1,31.0
2021-08-03T03:55:00Z,00000200,00000000,0005.26,0003.26,0001.71,0000.88,0000.28,0000.26,0001.02,0001.09,0000.94,18.6,25.0,04.6,03.1,0673.1,31.0
2021-08-03T03:56:00Z,00000200,00000000,0004.46,0002.80,0001.38,0000.68,0000.67,0000.31,0000.61,0000.65,0000.31,18.6,25.0,04.7,03.2,0673.1,31.0
2021-08-03T03:57:00Z,00000200,40000000,,,,,,,0000.57,0000.57,0000.07,18.6,25.0,05.2,03.5,0673.2,31.0
2021-08-03T03:58:00Z,00000200,60000000,,,,,,,0000.43,0000.22,0000.88,18.2,25.1,04.8,03.2,0672.2,31.0
2021-08-03T03:59:00Z,00000200,20000000,,,,,,,0000.17,0000.11,-000.00,18.2,25.2,04.9,03.2,0672.2,30.9
